#timestamp,LO_Frequency,Hit,StdDev 
1706814015.8,286047002.5,N
1706814035.7,286047002.8,N
1706814055.5,286047000.2,N
1706814075.3,286046998.5,N
1706814095.2,286047003.0,N
1706814115.0,286047004.4,N
1706814115.9,286047004.4,N
1706814135.8,286047002.2,N
1706814155.6,286047002.7,N
1706814175.4,286047000.5,N
1706814195.3,286047002.3,N
1706814215.1,286046998.7,N
1706814235.9,286047002.3,N
1706814255.7,286047000.5,N
1706814275.5,286047002.3,N
1706814295.4,286047000.1,N
1706814315.2,286047001.0,N
1706814335.0,286047002.6,N
1706814335.9,286047002.6,N
1706814355.8,286047000.6,N
1706814375.6,286046998.4,N
1706814395.5,286047002.6,N
1706814415.3,286047002.2,N
1706814435.1,286047003.1,N
1706814455.9,286047003.8,N
1706814475.7,286047001.5,N
1706814495.5,286047003.9,N
1706814515.4,286047004.4,N
1706814535.2,286047004.3,N
1706814555.1,286047004.2,N
1706814556.0,286047004.2,N
1706814575.8,286047003.9,N
1706814595.6,286047001.9,N
1706814615.5,286047001.8,N
1706814635.3,286047003.1,N
1706814655.1,286047003.7,N
1706814675.9,286047004.0,N
1706814695.7,286047003.7,N
1706814715.5,286047003.1,N
1706814735.4,286047003.2,N
1706814755.2,286047001.3,N
1706814775.1,286047003.5,N
1706814776.0,286047003.5,N
1706814795.8,286047005.4,Y
1706814815.6,286047001.4,P
1706814835.5,286046999.7,N
1706814855.3,286047000.2,N
1706814875.2,286047002.7,N
1706814895.9,286047002.3,N
1706814915.7,286047002.8,N
1706814935.6,286047000.9,N
1706814955.4,286046996.7,N
1706814975.2,286046997.2,N
1706814995.1,286047002.5,N
1706814996.0,286047002.5,N
1706815015.8,286047000.1,N
1706815035.7,286047001.8,N
1706815055.5,286047002.9,N
1706815075.3,286047005.8,Y
1706815095.2,286047003.3,P
1706815115.0,286047004.3,P
1706815115.9,286047004.3,P
1706815135.7,286046999.7,N
1706815155.6,286047001.9,N
1706815175.4,286047002.5,N
1706815195.3,286047000.5,N
1706815215.1,286046998.1,N
1706815216.0,286046998.1,N
1706815235.8,286046998.6,N
1706815255.7,286046998.5,N
1706815275.5,286047002.7,N
1706815295.3,286047000.0,N
1706815315.2,286047001.0,N
1706815335.0,286047000.7,N
1706815335.9,286047000.7,N
1706815355.7,286047002.4,N
1706815375.6,286047002.3,N
1706815395.4,286047002.6,N
1706815415.3,286047003.5,N
1706815435.1,286047004.0,N
1706815436.0,286047004.0,N
1706815455.8,286047004.3,N
1706815475.7,286047001.5,N
1706815495.5,286046999.7,N
1706815515.3,286047000.8,N
1706815535.2,286047002.5,N
1706815555.0,286047001.2,N
1706815555.9,286047001.2,N
1706815575.8,286047000.7,N
1706815595.6,286046999.3,N
1706815615.4,286046999.0,N
1706815635.3,286046998.1,N
1706815655.1,286046999.9,N
1706815656.0,286046999.9,N
1706815675.8,286047000.7,N
1706815695.7,286047000.6,N
1706815715.5,286047000.8,N
1706815735.4,286047000.6,N
1706815755.2,286046999.8,N
1706815775.0,286047001.2,N
1706815775.9,286047001.2,N
1706815795.8,286047002.3,N
1706815815.6,286046999.9,N
1706815835.5,286047001.8,N
1706815855.3,286047005.6,Y
1706815875.1,286047002.0,P
1706815895.9,286047000.5,N
1706815915.7,286047000.0,N
1706815935.5,286047000.3,N
1706815955.4,286047001.0,N
1706815975.2,286046999.9,N
1706815995.1,286047000.9,N
1706815996.0,286047000.9,N
1706816015.8,286046999.1,N
1706816035.6,286046999.4,N
1706816055.5,286047001.2,N
1706816075.3,286047000.7,N
1706816095.1,286047001.1,N
1706816115.9,286046998.9,N
1706816135.7,286047000.4,N
1706816155.6,286046999.3,N
1706816175.4,286047000.7,N
1706816195.2,286046999.4,N
1706816215.1,286046994.9,Y
1706816216.0,286046994.9,P
1706816235.8,286046995.0,N
1706816255.6,286046997.6,N
1706816275.5,286046997.6,N
1706816295.3,286046999.2,N
1706816315.2,286046998.7,N
1706816335.9,286046997.7,N
1706816355.7,286046999.2,N
1706816375.6,286046998.2,N
1706816395.4,286046996.9,N
1706816415.2,286047001.1,N
1706816435.1,286046999.4,N
1706816436.0,286046999.4,N
1706816455.8,286046997.0,N
1706816475.7,286046997.2,N
1706816495.5,286046997.7,N
1706816515.3,286046995.0,Y
1706816535.2,286046996.9,P
1706816555.0,286047001.0,N
1706816555.9,286047001.0,N
1706816575.8,286046999.7,N
1706816595.6,286047001.6,N
1706816615.4,286047000.1,N
1706816635.3,286047002.1,N
1706816655.1,286047001.4,N
1706816675.8,286047002.7,N
1706816695.7,286047001.7,N
1706816715.5,286047004.2,N
1706816735.4,286047007.4,Y
1706816755.2,286047002.9,P
1706816775.0,286047003.5,P
1706816775.9,286047003.5,P
1706816795.8,286047001.9,N
1706816815.6,286047002.1,N
1706816835.5,286047001.9,N
1706816855.3,286047002.5,N
1706816875.1,286047001.9,N
1706816895.9,286047001.7,N
1706816915.7,286047000.2,N
1706816935.5,286047000.3,N
1706816955.4,286047002.3,N
1706816975.2,286047000.0,N
1706816995.1,286047004.0,Y
1706816996.0,286047004.0,P
1706817015.8,286047001.8,N
1706817035.6,286047003.9,P
1706817055.5,286047002.2,N
1706817075.3,286047002.7,N
1706817095.1,286046999.9,N
1706817115.9,286047001.4,N
1706817135.7,286047000.0,N
1706817155.6,286047000.0,N
1706817175.4,286047001.4,N
1706817195.2,286046999.0,N
1706817215.1,286046996.6,N
1706817216.0,286046996.6,N
1706817235.8,286046999.1,N
1706817255.6,286046996.8,N
1706817275.5,286046998.8,N
1706817295.3,286046996.5,N
1706817315.2,286046998.9,N
1706817335.9,286046999.0,N
1706817355.7,286046997.0,N
1706817375.6,286046999.4,N
1706817395.4,286046998.7,N
1706817415.2,286047000.3,N
1706817435.1,286046998.6,N
1706817436.0,286046998.6,N
1706817455.8,286047000.7,N
1706817475.7,286047000.4,N
1706817495.5,286047001.8,N
1706817515.3,286047003.4,N
1706817535.2,286047002.7,N
1706817555.0,286047000.7,N
1706817555.9,286047000.7,N
1706817575.7,286047000.9,N
1706817595.6,286047000.3,N
